Regional Weather Roundup
Issued by NWS Huntsville, AL

Home | Current Version | Previous Version | Text Only | Print | Product List | Glossary On
Versions: 1 2 3 4 5 6 7 8 9 10 11 12 13 14 15 16 17 18 19 20 21 22 23 24 25 26 27 28 29 30 31 32 33 34 35 36 37 38 39 40 41 42 43 44 45 46 47 48 49 50
000
ASUS44 KHUN 250510
RWRHUN

WEATHER ROUNDUP FOR THE TENNESSEE VALLEY
NATIONAL WEATHER SERVICE HUNTSVILLE AL
1100 PM CST FRI NOV 24 2017

ALZ001>004-250600-
NORTHWEST ALABAMA

CITY           SKY/WX    TMP DP  RH WIND       PRES   REMARKS
COURTLAND HCN    N/A     39 N/A N/A CALM        N/A
RUSSELLVILLE     N/A     45 N/A N/A MISG        N/A
SHOALS AIRPORT CLEAR     40  30  67 SE3       29.95S
SHOALS TVA RES   N/A     37 N/A N/A MISG        N/A
$$

ALZ005>007-016-250600-
NORTH CENTRAL ALABAMA

CITY           SKY/WX    TMP DP  RH WIND       PRES   REMARKS
CULLMAN AG STN   N/A     37 N/A N/A CALM        N/A
DECATUR AP     CLEAR     39  39 100 SE3       29.96F
HUNTSVILLE AP  CLEAR     42  39  89 E3        29.95F
MERIDIANVILLE  CLEAR     37  36  93 CALM      29.95F
REDSTONE ARSN  CLEAR     45  41  87 S3        29.95S
VINEMONT AP    FAIR      46  40  79 CALM      29.98S
$$

ALZ008>010-250600-
NORTHEAST ALABAMA

CITY           SKY/WX    TMP DP  RH WIND       PRES   REMARKS
ALBERTVILLE    CLEAR     46  46 100 S5        29.96F
FORT PAYNE     CLEAR     36  34  93 CALM      29.97S
SCOTTSBORO AP  CLEAR     41  41 100 CALM      29.97S
SCOTTSBORO HCN   N/A     37 N/A N/A MISG        N/A
VALLEY HEAD      N/A     37 N/A N/A MISG        N/A
$$

TNZ076-096-097-250600-
SOUTHEASTERN MIDDLE TENNESSEE

CITY           SKY/WX    TMP DP  RH WIND       PRES   REMARKS
TULLAHOMA      CLEAR     45  39  81 S6        29.93S
WINCHESTER     CLEAR     39  36  87 CALM      29.95S
$$

...SURROUNDING SITES...

CITY           SKY/WX    TMP DP  RH WIND       PRES   REMARKS
ATLANTA        PTCLDY    48  43  82 SW3       29.98F
ANNISTON       CLEAR     42  39  89 CALM      29.99S
BIRMINGHAM     CLEAR     44  41  89 CALM      30.00S
CHATTANOOGA    PTCLDY    42  38  85 CALM      29.97S
CORINTH        FAIR      50  27  40 S6        29.92R
DALTON         CLEAR     37  37 100 CALM      30.00S
GADSDEN        CLEAR     38  38 100 CALM      29.99R
GOLDEN TRNGL   PTCLDY    44  31  60 S5        29.97S
HALEYVILLE     FAIR      43  34  70 S5        29.97F
JACKSON TN     MOCLDY    51  32  48 S10       29.89R
MEMPHIS        CLOUDY    54  31  41 S10       29.90R
NASHVILLE      PTCLDY    49  33  54 S10       29.89S
OXFORD MS      FAIR      46  32  57 VRB3G12   29.94S
ROME           CLEAR     39  38  96 CALM      29.97S
SAVANNAH       CLEAR     50  28  43 S7        29.90S
SELMER         CLEAR     50  25  37 VRB6G12   29.90R
TUPELO         PTCLDY    42  32  67 S8        29.93F
TUSCALOOSA     CLEAR     40  40 100 CALM      29.98F
$$

...GULF COAST WEATHER...

CITY           SKY/WX    TMP DP  RH WIND       PRES   REMARKS
GULFPORT       CLEAR     41  38  89 CALM      30.00S
PASCAGOULA     CLEAR     35  33  92 CALM      30.01R
MOBILE         CLEAR     42  38  85 CALM      30.01R
GULF SHORES    FOG       44  44 100 CALM      30.00S VSB 1/4
PENSACOLA      CLEAR     49  47  93 NW3       29.99S
DESTIN         CLOUDY    60  54  80 CALM      29.99R
PANAMA CITY    FOG       48  46  93 CALM      30.00S VSB 3/8
APPALACHICOLA  CLEAR     50  50 100 CALM      30.00S
$$




USA.gov is the U.S. government's official web portal to all federal, state and local government web resources and services.